timestamp,wind_dir_avg,wind_spd_avg,wind_spd_max_dir,wind_spd_gust,battery_voltage,lat,long
2020-11-03 00:04:01+00:00,214.0,15.7,217.0,18.91,12.49,47.59359,-54.27349
2020-11-03 00:14:01+00:00,214.0,14.04,217.0,15.99,12.49,47.59359,-54.27349
2020-11-03 00:24:01+00:00,214.0,15.42,214.0,17.87,12.49,47.59359,-54.27349
2020-11-03 00:34:01+00:00,214.0,13.8,218.0,16.59,12.49,47.59359,-54.27349
2020-11-03 00:44:01+00:00,213.0,14.08,217.0,15.99,12.49,47.59359,-54.27349
2020-11-03 00:54:01+00:00,209.0,13.23,206.0,16.3,12.49,47.59359,-54.27349
2020-11-03 01:04:01+00:00,213.0,12.3,211.0,14.09,12.49,47.59359,-54.27349
2020-11-03 01:14:01+00:00,217.0,11.91,221.0,13.73,12.41,47.59359,-54.27349
2020-11-03 01:24:01+00:00,211.0,12.76,210.0,14.86,12.41,47.59359,-54.27349
2020-11-03 01:34:01+00:00,213.0,12.03,216.0,13.64,12.41,47.59359,-54.27349
2020-11-03 01:44:01+00:00,213.0,12.1,211.0,14.44,12.41,47.59359,-54.27349
2020-11-03 01:54:01+00:00,213.0,13.26,216.0,15.01,12.41,47.59359,-54.27349
2020-11-03 02:04:01+00:00,214.0,12.8,208.0,14.5,12.41,47.59359,-54.27349
2020-11-03 02:14:01+00:00,217.0,12.69,220.0,14.54,12.41,47.59359,-54.27349
2020-11-03 02:24:01+00:00,214.0,10.49,214.0,11.89,12.41,47.59359,-54.27349
2020-11-03 02:34:01+00:00,213.0,12.25,212.0,14.31,12.41,47.59359,-54.27349
2020-11-03 02:44:01+00:00,217.0,12.72,217.0,14.81,12.41,47.59359,-54.27349
2020-11-03 02:54:01+00:00,216.0,12.94,220.0,14.21,12.41,47.59359,-54.27349
2020-11-03 03:04:01+00:00,214.0,12.52,220.0,14.05,12.41,47.59359,-54.27349
2020-11-03 03:14:01+00:00,216.0,12.57,216.0,14.02,12.41,47.59359,-54.27349
2020-11-03 03:24:01+00:00,209.0,13.12,212.0,15.53,12.41,47.59359,-54.27349
2020-11-03 03:34:01+00:00,207.0,14.56,208.0,16.68,12.41,47.59359,-54.27349
2020-11-03 03:44:01+00:00,215.0,13.37,216.0,14.84,12.41,47.59359,-54.27349
2020-11-03 03:54:01+00:00,217.0,13.95,216.0,15.51,12.41,47.59359,-54.27349
2020-11-03 04:04:01+00:00,213.0,12.88,210.0,15.74,12.41,47.59359,-54.27349
2020-11-03 04:14:01+00:00,214.0,10.55,211.0,12.53,12.41,47.59359,-54.27349
2020-11-03 04:24:01+00:00,218.0,12.18,219.0,14.44,12.41,47.59359,-54.27349
2020-11-03 04:34:01+00:00,216.0,10.76,220.0,12.14,12.41,47.59359,-54.27349
2020-11-03 04:44:01+00:00,215.0,13.93,212.0,16.26,12.41,47.59359,-54.27349
2020-11-03 04:54:01+00:00,216.0,16.34,218.0,18.93,12.41,47.59359,-54.27349
2020-11-03 05:04:01+00:00,214.0,15.25,220.0,17.45,12.41,47.59359,-54.27349
2020-11-03 05:14:01+00:00,226.0,15.35,223.0,17.7,12.41,47.59359,-54.27349
2020-11-03 05:24:01+00:00,227.0,14.52,234.0,17.12,12.41,47.59359,-54.27349
2020-11-03 05:34:01+00:00,227.0,13.1,223.0,15.47,12.41,47.59359,-54.27349
2020-11-03 05:44:01+00:00,222.0,12.28,220.0,14.19,12.41,47.59359,-54.27349
2020-11-03 05:54:01+00:00,225.0,13.38,221.0,15.58,12.41,47.59359,-54.27349
2020-11-03 06:04:01+00:00,234.0,14.86,229.0,20.08,12.41,47.59359,-54.27349
2020-11-03 06:14:01+00:00,232.0,13.86,232.0,17.79,12.41,47.59359,-54.27349
2020-11-03 06:24:01+00:00,233.0,13.5,243.0,18.91,12.41,47.59359,-54.27349
2020-11-03 06:34:01+00:00,228.0,14.17,231.0,16.2,12.41,47.59359,-54.27349
2020-11-03 06:44:01+00:00,225.0,14.96,234.0,18.05,12.41,47.59359,-54.27349
2020-11-03 06:54:01+00:00,225.0,14.37,226.0,16.37,12.41,47.59359,-54.27349
2020-11-03 07:04:01+00:00,231.0,15.52,236.0,18.8,12.41,47.59359,-54.27349
2020-11-03 07:14:01+00:00,233.0,14.18,232.0,16.59,12.41,47.59359,-54.27349
2020-11-03 07:24:01+00:00,232.0,15.05,229.0,17.27,12.41,47.59359,-54.27349
2020-11-03 07:34:01+00:00,230.0,13.8,234.0,16.7,12.41,47.59359,-54.27349
2020-11-03 07:44:01+00:00,229.0,12.37,234.0,15.33,12.41,47.59359,-54.27349
2020-11-03 07:54:01+00:00,226.0,13.97,221.0,19.67,12.41,47.59359,-54.27349
2020-11-03 08:04:01+00:00,229.0,13.88,228.0,17.56,12.41,47.59359,-54.27349
2020-11-03 08:14:01+00:00,225.0,12.53,224.0,14.19,12.41,47.59359,-54.27349
2020-11-03 08:24:01+00:00,227.0,14.72,234.0,18.32,12.41,47.59359,-54.27349
2020-11-03 08:34:01+00:00,230.0,15.61,232.0,18.97,12.41,47.59359,-54.27349
2020-11-03 08:44:01+00:00,232.0,13.07,239.0,14.8,12.41,47.59359,-54.27349
2020-11-03 08:54:01+00:00,226.0,11.25,220.0,14.21,12.41,47.59359,-54.27349
2020-11-03 09:04:01+00:00,232.0,11.56,235.0,15.12,12.41,47.59359,-54.27349
2020-11-03 09:14:01+00:00,233.0,13.11,228.0,15.55,12.41,47.59359,-54.27349
2020-11-03 09:24:01+00:00,225.0,10.24,221.0,11.87,12.41,47.59359,-54.27349
2020-11-03 09:34:01+00:00,222.0,12.84,216.0,15.44,12.41,47.59359,-54.27349
2020-11-03 09:44:01+00:00,221.0,11.14,224.0,13.59,12.41,47.59359,-54.27349
2020-11-03 09:54:01+00:00,227.0,12.03,226.0,13.67,12.41,47.59359,-54.27349
2020-11-03 10:04:01+00:00,231.0,13.77,229.0,20.05,12.41,47.59359,-54.27349
2020-11-03 10:14:01+00:00,232.0,13.92,234.0,16.65,12.41,47.59359,-54.27349
2020-11-03 10:24:01+00:00,244.0,10.81,244.0,12.2,12.41,47.59359,-54.27349
2020-11-03 10:34:01+00:00,246.0,12.12,249.0,15.19,12.41,47.59359,-54.27349
2020-11-03 10:44:01+00:00,243.0,14.88,245.0,17.91,12.41,47.59359,-54.27349
2020-11-03 10:54:01+00:00,239.0,12.44,241.0,14.24,12.41,47.59359,-54.27349
2020-11-03 11:04:01+00:00,245.0,12.37,243.0,15.34,12.41,47.59359,-54.27349
2020-11-03 11:14:01+00:00,248.0,14.29,255.0,18.47,12.41,47.59359,-54.27349
2020-11-03 11:24:01+00:00,243.0,13.35,240.0,15.96,12.41,47.59359,-54.27349
2020-11-03 11:34:01+00:00,244.0,12.65,248.0,15.51,12.41,47.59359,-54.27349
2020-11-03 11:44:01+00:00,244.0,10.4,246.0,12.38,12.41,47.59359,-54.27349
2020-11-03 11:54:01+00:00,245.0,10.89,250.0,12.02,12.41,47.59359,-54.27349
2020-11-03 12:04:01+00:00,252.0,12.57,255.0,14.11,12.41,47.59359,-54.27349
2020-11-03 12:14:01+00:00,243.0,10.53,247.0,12.03,12.41,47.59359,-54.27349
2020-11-03 12:24:01+00:00,245.0,9.96,245.0,11.7,12.41,47.59359,-54.27349
2020-11-03 12:34:01+00:00,241.0,10.81,237.0,12.56,12.41,47.59359,-54.27349
2020-11-03 12:44:01+00:00,237.0,13.3,240.0,14.79,12.41,47.59359,-54.27349
2020-11-03 12:54:01+00:00,238.0,11.95,241.0,13.95,12.41,47.59359,-54.27349
2020-11-03 13:04:01+00:00,236.0,12.69,241.0,14.88,12.41,47.59359,-54.27349
2020-11-03 13:14:01+00:00,241.0,11.83,248.0,13.61,13.05,47.59359,-54.27349
2020-11-03 13:24:01+00:00,243.0,12.2,241.0,13.66,13.05,47.59359,-54.27349
2020-11-03 13:34:01+00:00,245.0,10.99,234.0,16.09,13.05,47.59359,-54.27349
2020-11-03 13:44:01+00:00,250.0,11.28,250.0,12.69,13.05,47.59359,-54.27349
2020-11-03 13:54:01+00:00,247.0,10.68,251.0,12.32,13.05,47.59359,-54.27349
2020-11-03 14:04:01+00:00,244.0,13.51,246.0,15.84,13.05,47.59359,-54.27349
2020-11-03 14:14:01+00:00,240.0,12.98,244.0,14.6,13.76,47.59359,-54.27349
2020-11-03 14:24:01+00:00,242.0,13.16,244.0,15.49,13.76,47.59359,-54.27349
2020-11-03 14:34:01+00:00,233.0,13.5,229.0,15.31,13.76,47.59359,-54.27349
2020-11-03 14:44:01+00:00,245.0,13.74,249.0,15.14,13.76,47.59359,-54.27349
2020-11-03 14:54:01+00:00,250.0,12.15,248.0,14.21,13.76,47.59359,-54.27349
2020-11-03 15:04:01+00:00,242.0,12.59,245.0,14.06,13.76,47.59359,-54.27349
2020-11-03 15:14:01+00:00,244.0,13.01,238.0,15.27,13.68,47.59359,-54.27349
2020-11-03 15:24:01+00:00,249.0,10.99,244.0,12.99,13.68,47.59359,-54.27349
2020-11-03 15:34:01+00:00,249.0,12.53,255.0,14.49,13.68,47.59359,-54.27349
2020-11-03 15:44:01+00:00,249.0,12.25,250.0,13.97,13.68,47.59359,-54.27349
2020-11-03 15:54:01+00:00,245.0,12.26,248.0,14.21,13.68,47.59359,-54.27349
2020-11-03 16:04:01+00:00,242.0,12.14,242.0,14.26,13.68,47.59359,-54.27349
2020-11-03 16:14:01+00:00,239.0,13.55,239.0,15.68,13.76,47.59359,-54.27349
2020-11-03 16:24:01+00:00,244.0,12.95,249.0,14.94,13.76,47.59359,-54.27349
2020-11-03 16:34:01+00:00,241.0,11.87,239.0,13.69,13.76,47.59359,-54.27349
2020-11-03 16:44:01+00:00,237.0,13.1,238.0,15.07,13.76,47.59359,-54.27349
2020-11-03 16:54:01+00:00,242.0,12.28,244.0,14.61,13.76,47.59359,-54.27349
2020-11-03 17:04:01+00:00,237.0,11.19,238.0,13.37,13.76,47.59359,-54.27349
2020-11-03 17:14:01+00:00,238.0,12.59,240.0,14.48,14.24,47.59359,-54.27349
2020-11-03 17:24:01+00:00,241.0,13.49,242.0,15.09,14.24,47.59359,-54.27349
2020-11-03 17:34:01+00:00,237.0,12.19,237.0,15.09,14.24,47.59359,-54.27349
2020-11-03 17:44:01+00:00,242.0,13.72,244.0,16.4,14.24,47.59359,-54.27349
2020-11-03 17:54:01+00:00,243.0,11.35,243.0,12.75,14.24,47.59359,-54.27349
2020-11-03 18:04:01+00:00,239.0,13.07,244.0,15.28,14.24,47.59359,-54.27349
2020-11-03 18:14:01+00:00,233.0,11.21,233.0,13.17,14.0,47.59359,-54.27349
2020-11-03 18:24:01+00:00,237.0,10.53,233.0,12.15,14.0,47.59359,-54.27349
2020-11-03 18:34:01+00:00,233.0,9.19,234.0,11.41,14.0,47.59359,-54.27349
2020-11-03 18:44:01+00:00,241.0,10.92,246.0,12.47,14.0,47.59359,-54.27349
2020-11-03 18:54:01+00:00,240.0,9.95,234.0,11.74,14.0,47.59359,-54.27349
2020-11-03 19:04:01+00:00,239.0,11.55,245.0,13.19,14.0,47.59359,-54.27349
2020-11-03 19:14:01+00:00,251.0,8.76,254.0,9.76,13.68,47.59359,-54.27349
2020-11-03 19:24:01+00:00,240.0,10.77,240.0,13.02,13.68,47.59359,-54.27349
2020-11-03 19:34:01+00:00,236.0,9.42,237.0,10.64,13.68,47.59359,-54.27349
2020-11-03 19:44:01+00:00,242.0,9.75,245.0,10.95,13.68,47.59359,-54.27349
2020-11-03 19:54:01+00:00,229.0,8.1,233.0,11.16,13.68,47.59359,-54.27349
2020-11-03 20:04:01+00:00,246.0,9.1,245.0,10.94,13.68,47.59359,-54.27349
2020-11-03 20:14:01+00:00,240.0,8.23,242.0,9.34,13.6,47.59359,-54.27349
2020-11-03 20:24:01+00:00,238.0,7.93,240.0,8.87,13.6,47.59359,-54.27349
2020-11-03 20:34:01+00:00,234.0,8.49,231.0,9.3,13.6,47.59359,-54.27349
2020-11-03 20:44:01+00:00,228.0,7.37,226.0,8.23,13.6,47.59359,-54.27349
2020-11-03 20:54:01+00:00,229.0,7.18,234.0,8.24,13.6,47.59359,-54.27349
2020-11-03 21:04:01+00:00,236.0,7.46,240.0,9.35,13.6,47.59359,-54.27349
2020-11-03 21:14:01+00:00,260.0,6.77,257.0,7.78,12.89,47.59359,-54.27349
2020-11-03 21:24:01+00:00,248.0,7.02,248.0,7.82,12.89,47.59359,-54.27349
2020-11-03 21:34:01+00:00,252.0,6.46,255.0,7.26,12.89,47.59359,-54.27349
2020-11-03 21:44:01+00:00,253.0,5.65,257.0,6.48,12.89,47.59359,-54.27349
2020-11-03 21:54:01+00:00,249.0,6.32,246.0,6.88,12.89,47.59359,-54.27349
2020-11-03 22:04:01+00:00,250.0,5.81,249.0,6.64,12.89,47.59359,-54.27349
2020-11-03 22:14:01+00:00,258.0,5.64,253.0,6.04,12.65,47.59359,-54.27349
2020-11-03 22:24:01+00:00,266.0,5.35,266.0,6.05,12.65,47.59359,-54.27349
2020-11-03 22:34:01+00:00,262.0,4.13,260.0,4.97,12.65,47.59359,-54.27349
2020-11-03 22:44:01+00:00,249.0,5.18,252.0,6.18,12.65,47.59359,-54.27349
2020-11-03 22:54:01+00:00,250.0,5.01,247.0,5.72,12.65,47.59359,-54.27349
2020-11-03 23:04:01+00:00,242.0,4.76,241.0,5.56,12.65,47.59359,-54.27349
2020-11-03 23:14:01+00:00,268.0,4.1,271.0,4.72,12.65,47.59359,-54.27349
2020-11-03 23:24:01+00:00,262.0,3.69,265.0,4.23,12.65,47.59359,-54.27349
2020-11-03 23:34:01+00:00,256.0,2.98,256.0,3.4,12.65,47.59359,-54.27349
2020-11-03 23:44:01+00:00,260.0,2.48,265.0,3.1,12.65,47.59359,-54.27349
2020-11-03 23:54:01+00:00,273.0,1.85,276.0,2.54,12.65,47.59359,-54.27349
